Location: Unspecified
(40.7945°N, 0.0000°E)
Time: 02:40:40
(UTC+00:00)

Altair - Pass Details

Date: 25 January 2021
Orbit: 1501 x 1682 km, 47.2° (Epoch: 01 March)

Event Time Altitude Azimuth Distance (km) Brightness Sun altitude
Rises 10:47:52 0° 298° (WNW) 4,940 9.7 27.2°
Reaches altitude 10° 10:51:03 10° 296° (WNW) 3,948 9.3 27.4°
Maximum altitude 11:01:09 71° 215° (SW) 1,740 8.5 28.1°
Drops below altitude 10° 11:10:57 10° 134° (SE) 3,848 10.7 28.7°
Sets 11:14:02 0° 132° (SE) 4,809 10.9 28.8°
